Change the Weather History Date:

Saturday, December 8, 2012

  Actual Average Record
Temperature  
Mean Temperature 57 °F -  
Max Temperature 68 °F 63 °F 81 °F (1998)
Min Temperature 46 °F 44 °F 22 °F (1954)
Degree Days  
Heating Degree Days 8    
Growing Degree Days 7 (Base 50)    
Moisture  
Dew Point 50 °F    
Average Humidity 88    
Maximum Humidity 100    
Minimum Humidity 63    
Precipitation  
Precipitation 0.01 in - - ()
Sea Level Pressure  
Sea Level Pressure 30.06 in    
Wind  
Wind Speed 1 mph (North)    
Max Wind Speed 5 mph    
Max Gust Speed -    
Visibility 6 miles    
Events Fog    
Averages and records for this station are not official NWS values.
T = Trace of Precipitation, MM = Missing Value Source: NWS Daily Summary

Daily Weather History Graph

Daily Weather History Graph

Search for Another Location

Airport or City:

Trip Planner

Search our weather history database for the weather conditions in past years. The results will help you decide how hot, cold, wet, or windy it might be!

Date:

Astronomy

Dec. 08, 2012 Rise Set
Actual Time 7:12 AM EST 5:17 PM EST
Civil Twilight 6:45 AM EST 5:44 PM EST
Nautical Twilight 6:14 AM EST 6:15 PM EST
Astronomical Twilight 5:45 AM EST 6:44 PM EST
Moon 1:50 AM EST (12/8) 1:33 PM EST (12/8)
Length of Visible Light 10h 58m
Length of Day
10h 04m
Waning Crescent, 28% of the Moon is Illuminated
Dec 8
Waning Crescent
Dec 13
New
Dec 20
First Quarter
Dec 28
Full
Jan 4
Last Quarter

Hourly Weather History & Observations

Time (EST) Temp. Dew Point Humidity Pressure Visibility Wind Dir Wind Speed Gust Speed Precip Events Conditions
12:56 AM 48.9 °F 46.9 °F 93% 30.03 in 7.0 mi Calm Calm - N/A   Clear
1:51 AM 48.2 °F 46.4 °F 93% 30.02 in 7.0 mi Calm Calm - N/A   Partly Cloudy
1:56 AM 48.9 °F 46.0 °F 90% 30.03 in 7.0 mi Calm Calm - N/A   Scattered Clouds
2:52 AM 48.2 °F 46.4 °F 93% 30.03 in 1.8 mi North 3.5 mph - N/A   Clear
2:56 AM 48.9 °F 46.9 °F 93% 30.03 in 0.8 mi Calm Calm - N/A   Clear
2:59 AM 48.2 °F 48.2 °F 100% 30.02 in 0.5 mi Calm Calm - N/A Fog Fog
3:09 AM 50.0 °F 48.2 °F 94% 30.02 in 0.5 mi North 3.5 mph - N/A Fog Fog
3:23 AM 50.0 °F 48.2 °F 94% 30.02 in 1.0 mi Calm Calm - N/A   Mist
3:26 AM 50.0 °F 48.2 °F 94% 30.02 in 1.8 mi Calm Calm - N/A   Scattered Clouds
3:28 AM 50.0 °F 48.2 °F 94% 30.02 in 3.0 mi Calm Calm - N/A   Partly Cloudy
3:56 AM 48.0 °F 46.9 °F 96% 30.02 in 7.0 mi Calm Calm - N/A   Clear
4:56 AM 50.0 °F 48.0 °F 93% 30.04 in 5.0 mi Calm Calm - N/A   Clear
5:35 AM 46.4 °F 44.6 °F 93% 30.05 in 1.5 mi Calm Calm - N/A   Partly Cloudy
5:38 AM 48.2 °F 46.4 °F 93% 30.04 in 0.8 mi Calm Calm - N/A   Mist
5:45 AM 48.2 °F 46.4 °F 93% 30.05 in 1.2 mi Calm Calm - N/A   Partly Cloudy
5:48 AM 46.4 °F 46.4 °F 100% 30.04 in 3.0 mi Calm Calm - N/A   Partly Cloudy
5:56 AM 46.9 °F 45.0 °F 93% 30.05 in 6.0 mi NW 3.5 mph - N/A   Partly Cloudy
6:56 AM 46.9 °F 45.0 °F 93% 30.06 in 4.0 mi Calm Calm - N/A   Clear
7:56 AM 48.9 °F 46.9 °F 93% 30.08 in 5.0 mi Calm Calm - N/A   Clear
8:56 AM 54.0 °F 52.0 °F 93% 30.09 in 6.0 mi Calm Calm - N/A   Clear
9:11 AM 55.4 °F 51.8 °F 88% 30.10 in 7.0 mi Calm Calm - N/A   Partly Cloudy
9:56 AM 57.9 °F 53.1 °F 84% 30.11 in 9.0 mi Calm Calm - N/A   Clear
10:56 AM 62.1 °F 53.1 °F 72% 30.10 in 10.0 mi SSE 3.5 mph - N/A   Clear
11:56 AM 64.9 °F 54.0 °F 68% 30.08 in 10.0 mi Variable 4.6 mph - N/A   Clear
12:56 PM 66.0 °F 55.0 °F 68% 30.06 in 10.0 mi Calm Calm - N/A   Clear
1:56 PM 66.9 °F 54.0 °F 63% 30.03 in 10.0 mi Calm Calm - N/A   Clear
2:56 PM 66.9 °F 55.0 °F 66% 30.02 in 10.0 mi Calm Calm - N/A   Clear
3:56 PM 68.0 °F 55.0 °F 63% 30.04 in 10.0 mi Calm Calm - N/A   Clear
4:56 PM 64.0 °F 55.9 °F 75% 30.05 in 10.0 mi South 4.6 mph - N/A   Clear
5:56 PM 61.0 °F 55.0 °F 81% 30.06 in 10.0 mi Calm Calm - N/A   Scattered Clouds
6:56 PM 57.9 °F 55.0 °F 90% 30.08 in 10.0 mi Calm Calm - N/A   Partly Cloudy
7:56 PM 57.9 °F 54.0 °F 87% 30.09 in 10.0 mi Calm Calm - N/A   Clear
8:56 PM 57.0 °F 53.1 °F 87% 30.10 in 10.0 mi Calm Calm - N/A   Clear
9:56 PM 54.0 °F 51.1 °F 90% 30.10 in 9.0 mi Calm Calm - N/A   Clear
10:56 PM 53.1 °F 50.0 °F 89% 30.09 in 10.0 mi Calm Calm - 0.01 in   Clear
11:08 PM 53.6 °F 51.8 °F 94% 30.09 in 1.5 mi Calm Calm - N/A   Clear
11:11 PM 53.6 °F 51.8 °F 94% 30.09 in 0.8 mi Calm Calm - N/A   Clear
11:20 PM 53.6 °F 51.8 °F 94% 30.09 in 0.5 mi Calm Calm - N/A Fog Fog
11:32 PM 53.6 °F 51.8 °F 94% 30.09 in 0.5 mi Calm Calm - N/A Fog Fog
11:35 PM 51.8 °F 51.8 °F 100% 30.08 in 1.0 mi Calm Calm - N/A   Mist
11:37 PM 51.8 °F 50.0 °F 94% 30.08 in 1.8 mi Calm Calm - N/A   Partly Cloudy
11:44 PM 51.8 °F 50.0 °F 94% 30.08 in 10.0 mi Calm Calm - N/A   Partly Cloudy
11:56 PM 52.0 °F 48.9 °F 89% 30.08 in 9.0 mi Calm Calm - N/A   Partly Cloudy